Total_Precipitation_Accumulation
2.16 2.48 2.81 3.10 3.59 3.63 3.50 3.57 3.74 3.97 4.09 4.36 4.45 4.72 5.11 5.34 5.47 5.48 5.33 5.35 5.25 5.34 5.40 5.21 5.05 4.92 4.88 4.78 4.72 4.55 4.33 4.05 3.93 3.85 3.47 2.93 2.63 2.58 2.53 2.53 2.60 2.66 2.70
2.50 2.70 2.84 3.24 3.71 3.88 3.87 3.89 4.07 4.42 4.67 4.94 5.36 5.68 6.04 6.31 6.46 6.46 6.01 5.76 5.61 5.50 5.41 5.47 5.41 5.23 5.09 4.92 4.72 4.61 4.42 4.05 3.96 3.95 3.83 3.35 2.95 2.54 2.19 2.19 2.24 2.35 2.54
2.68 2.77 2.82 3.20 3.53 3.76 3.89 4.04 4.29 4.75 5.29 5.68 6.13 6.54 6.76 6.79 6.61 6.31 6.19 5.98 5.81 5.66 5.46 5.35 5.16 5.01 4.90 4.79 4.59 4.41 4.27 4.05 3.89 3.83 3.95 3.64 3.19 2.74 2.38 2.06 2.01 2.04 2.18
2.59 2.71 2.82 3.10 3.43 3.73 3.92 4.26 4.76 5.39 5.95 6.41 6.98 7.50 7.60 7.33 6.96 6.50 6.06 5.81 5.57 5.26 5.02 4.90 4.81 4.64 4.31 4.11 3.94 3.87 3.74 3.61 3.43 3.46 3.41 3.26 3.08 3.07 2.93 2.63 2.39 2.27 2.20
2.25 2.49 2.63 2.84 3.30 3.60 3.89 4.25 4.83 5.58 6.29 7.06 7.70 8.12 7.98 7.60 7.13 6.43 5.84 5.37 5.01 4.67 4.38 4.27 4.14 3.90 3.51 3.17 3.04 3.14 3.21 3.21 3.11 3.10 3.15 3.14 2.98 2.92 2.91 2.84 2.70 2.57 2.34
2.01 2.13 2.30 2.61 3.04 3.31 3.58 4.00 4.68 5.46 6.11 6.67 7.14 7.36 7.27 7.07 6.51 5.79 5.16 4.74 4.44 4.13 3.75 3.41 3.16 2.93 2.75 2.56 2.52 2.57 2.64 2.85 2.95 3.07 3.08 3.06 2.96 2.86 2.90 2.80 2.73 2.71 2.53
1.91 1.92 2.05 2.29 2.67 2.83 3.22 3.65 4.11 4.79 5.22 5.54 5.88 6.04 6.12 5.91 5.58 5.08 4.60 4.17 3.70 3.36 3.04 2.73 2.61 2.48 2.36 2.28 2.29 2.31 2.27 2.37 2.56 2.68 2.76 2.83 2.83 2.80 2.86 2.97 2.92 2.75 2.57
1.85 1.88 2.01 2.20 2.47 2.62 2.80 2.98 3.26 3.66 3.83 3.89 4.12 4.38 4.43 4.39 4.25 3.96 3.60 3.29 2.95 2.58 2.35 2.14 1.98 1.96 2.02 1.96 2.03 2.05 2.06 2.07 2.15 2.24 2.46 2.56 2.57 2.58 2.57 2.63 2.74 2.79 2.63
1.66 1.85 1.97 1.99 2.03 2.08 2.16 2.26 2.45 2.61 2.67 2.77 2.87 3.01 3.04 3.03 2.98 2.84 2.58 2.37 2.17 1.92 1.80 1.73 1.68 1.64 1.70 1.80 1.83 1.79 1.81 1.91 1.92 1.95 2.08 2.13 2.14 2.17 2.24 2.34 2.42 2.61 2.64
1.56 1.74 1.87 1.86 1.85 1.79 1.86 1.93 2.02 2.08 2.10 2.17 2.18 2.13 2.18 2.18 2.16 2.03 1.93 1.87 1.75 1.62 1.60 1.55 1.48 1.42 1.43 1.47 1.55 1.57 1.59 1.63 1.70 1.74 1.76 1.80 1.79 1.84 1.92 2.07 2.21 2.28 2.36
1.50 1.66 1.67 1.63 1.63 1.61 1.67 1.73 1.72 1.71 1.70 1.70 1.72 1.67 1.62 1.63 1.71 1.71 1.63 1.58 1.48 1.35 1.33 1.26 1.19 1.16 1.19 1.24 1.34 1.37 1.42 1.47 1.53 1.61 1.60 1.60 1.61 1.68 1.69 1.71 1.79 1.96 2.05
1.55 1.56 1.56 1.51 1.45 1.47 1.51 1.57 1.51 1.46 1.52 1.44 1.39 1.39 1.37 1.38 1.43 1.42 1.31 1.26 1.29 1.19 1.15 1.08 1.03 1.01 1.03 1.07 1.12 1.15 1.19 1.31 1.34 1.36 1.38 1.37 1.41 1.45 1.46 1.50 1.52 1.61 1.75
1.93 1.76 1.61 1.59 1.53 1.48 1.42 1.30 1.29 1.29 1.32 1.32 1.30 1.27 1.27 1.28 1.28 1.26 1.24 1.19 1.19 1.17 1.09 0.98 0.94 0.92 0.92 0.92 0.97 1.03 1.03 1.06 1.13 1.17 1.24 1.26 1.29 1.26 1.20 1.25 1.34 1.38 1.45
2.16 1.95 1.72 1.64 1.57 1.46 1.40 1.31 1.28 1.20 1.18 1.21 1.21 1.22 1.21 1.22 1.19 1.21 1.28 1.25 1.16 1.08 1.01 0.96 0.90 0.87 0.84 0.86 0.88 0.86 0.89 0.94 1.00 1.02 1.07 1.08 1.11 1.13 1.16 1.18 1.30 1.36 1.49
2.08 2.00 1.90 1.80 1.68 1.52 1.45 1.36 1.28 1.16 1.14 1.10 1.11 1.12 1.10 1.08 1.05 1.10 1.15 1.17 1.16 1.07 1.01 0.95 0.89 0.77 0.72 0.71 0.74 0.74 0.77 0.86 0.89 0.91 0.90 0.89 0.95 1.04 1.05 1.02 1.12 1.27 1.44
2.25 2.10 1.96 1.84 1.78 1.64 1.56 1.47 1.38 1.32 1.27 1.19 1.18 1.12 1.10 1.06 1.03 1.04 1.07 1.04 1.01 0.99 0.95 0.87 0.80 0.71 0.60 0.64 0.64 0.64 0.70 0.81 0.85 0.84 0.82 0.79 0.78 0.84 0.90 0.92 0.98 1.12 1.24
2.38 2.16 2.05 1.99 1.93 1.87 1.77 1.64 1.47 1.39 1.20 1.10 1.08 1.04 1.02 0.98 0.96 0.92 0.92 0.94 1.01 1.01 0.93 0.84 0.80 0.78 0.70 0.56 0.49 0.53 0.64 0.80 0.80 0.80 0.84 0.76 0.70 0.81 0.84 0.87 0.86 0.89 0.93
2.53 2.32 2.12 2.04 1.98 1.88 1.74 1.57 1.37 1.20 1.05 0.99 0.96 0.91 0.88 0.87 0.90 0.86 0.87 0.92 0.96 0.95 0.93 0.91 0.93 0.93 0.75 0.55 0.42 0.47 0.63 0.74 0.69 0.70 0.78 0.85 0.87 0.81 0.81 0.83 0.86 0.90 0.90
2.48 2.33 2.12 1.99 1.90 1.71 1.55 1.41 1.20 1.08 1.02 0.95 0.91 0.82 0.75 0.82 0.84 0.81 0.83 0.90 0.90 0.89 0.88 0.89 0.96 0.97 0.84 0.64 0.50 0.52 0.64 0.72 0.70 0.70 0.68 0.70 0.77 0.75 0.80 0.88 1.02 1.06 1.06
2.14 2.09 1.90 1.77 1.70 1.52 1.37 1.33 1.19 1.05 0.98 0.91 0.88 0.81 0.78 0.81 0.85 0.88 0.87 0.81 0.83 0.81 0.75 0.80 0.91 0.91 0.82 0.64 0.50 0.51 0.55 0.66 0.77 0.85 0.84 0.80 0.76 0.74 0.80 0.93 1.10 1.16 1.15
1.74 1.75 1.66 1.64 1.52 1.33 1.28 1.36 1.37 1.17 0.94 0.83 0.82 0.85 0.86 0.80 0.77 0.81 0.82 0.78 0.72 0.75 0.77 0.77 0.84 0.90 0.74 0.58 0.49 0.54 0.58 0.65 0.75 0.84 0.91 0.88 0.83 0.79 0.80 0.85 0.99 1.09 1.10
1.43 1.52 1.58 1.52 1.41 1.30 1.29 1.33 1.33 1.14 0.94 0.89 0.91 0.88 0.81 0.69 0.64 0.75 0.75 0.73 0.73 0.77 0.81 0.82 0.85 0.81 0.66 0.51 0.46 0.52 0.58 0.60 0.69 0.83 0.82 0.82 0.81 0.79 0.83 0.86 0.96 1.06 1.21
1.31 1.36 1.41 1.39 1.33 1.25 1.27 1.28 1.19 1.02 0.95 0.99 0.97 0.92 0.81 0.72 0.71 0.74 0.73 0.70 0.72 0.70 0.69 0.71 0.76 0.73 0.62 0.54 0.48 0.49 0.50 0.51 0.57 0.69 0.71 0.70 0.69 0.74 0.88 0.95 1.02 1.15 1.38
1.16 1.23 1.28 1.29 1.24 1.14 1.13 1.14 1.03 0.99 1.04 1.03 0.95 0.91 0.84 0.75 0.68 0.66 0.61 0.64 0.67 0.67 0.67 0.64 0.66 0.63 0.58 0.51 0.44 0.45 0.46 0.45 0.48 0.56 0.66 0.75 0.80 0.88 1.02 1.17 1.27 1.30 1.36
1.07 1.11 1.23 1.24 1.10 1.00 0.94 0.91 0.96 1.02 1.07 0.99 0.86 0.79 0.72 0.68 0.67 0.60 0.54 0.54 0.57 0.59 0.59 0.54 0.50 0.49 0.46 0.40 0.43 0.45 0.45 0.45 0.47 0.52 0.65 0.87 1.00 1.10 1.14 1.18 1.27 1.28 1.21
0.98 1.04 1.05 1.05 0.97 0.89 0.87 0.81 0.87 0.93 0.94 0.87 0.75 0.65 0.58 0.56 0.49 0.49 0.47 0.45 0.45 0.45 0.47 0.45 0.39 0.35 0.37 0.38 0.39 0.39 0.40 0.44 0.50 0.54 0.71 0.90 1.01 1.08 1.13 1.14 1.14 1.11 1.07